• In Hungary
  • List of Countries
  • For 7 days
  • Water Temperature
  • Satellite Maps
  • Weather Map
  • News
  • Weather Widgets
  • user-avatar
    Login

    Hourly Weather Zavodivka

    Today, 20 January, Saturday

    Time Temperature Precipitation Wind Pressure Humidity
    00:00 -1°C° 0 mm 2 mps 758 mmHg 83%
    01:00 -1°C° 0 mm 2 mps 758 mmHg 83%
    02:00 +1°C° 0 mm 2 mps 758 mmHg 82%
    03:00 +2°C° 0.1 mm 1 mps 758 mmHg 83%
    04:00 +2°C° 0.1 mm 1 mps 757 mmHg 84%
    05:00 +2°C° 0.1 mm 1 mps 757 mmHg 85%
    06:00 +2°C° 0.1 mm 1 mps 757 mmHg 86%
    07:00 +2°C° 0.1 mm 1 mps 757 mmHg 87%
    08:00 +2°C° 0.1 mm 2 mps 757 mmHg 87%
    09:00 +2°C° 0.1 mm 2 mps 757 mmHg 89%
    10:00 +1°C° 0.1 mm 3 mps 757 mmHg 91%
    11:00 +1°C° 0.1 mm 3 mps 757 mmHg 93%
    12:00 +1°C° 0.4 mm 3 mps 757 mmHg 94%
    13:00 +1°C° 0.4 mm 3 mps 757 mmHg 94%
    14:00 +1°C° 0.4 mm 3 mps 757 mmHg 95%
    15:00 +1°C° 0.3 mm 3 mps 757 mmHg 95%
    16:00 0°C° 0.3 mm 3 mps 757 mmHg 94%
    17:00 0°C° 0.3 mm 3 mps 757 mmHg 94%
    18:00 0°C° 0 mm 3 mps 757 mmHg 94%
    19:00 -1°C° 0 mm 3 mps 757 mmHg 94%
    20:00 -1°C° 0 mm 3 mps 757 mmHg 94%
    21:00 -1°C° 0.1 mm 3 mps 757 mmHg 94%
    22:00 -2°C° 0.1 mm 3 mps 756 mmHg 93%
    23:00 -2°C° 0.1 mm 3 mps 756 mmHg 93%

    Tomorrow, 21 January, Sunday

    Time Temperature Precipitation Wind Pressure Humidity
    00:00 -2°C° 0.1 mm 3 mps 756 mmHg 92%
    01:00 -2°C° 0.1 mm 3 mps 757 mmHg 91%
    02:00 -2°C° 0.1 mm 3 mps 757 mmHg 90%
    03:00 -4°C° 0 mm 3 mps 757 mmHg 89%
    04:00 -5°C° 0 mm 3 mps 757 mmHg 88%
    05:00 -5°C° 0 mm 3 mps 757 mmHg 87%
    06:00 -5°C° 0 mm 2 mps 758 mmHg 86%
    07:00 -5°C° 0 mm 2 mps 758 mmHg 86%
    08:00 -5°C° 0 mm 2 mps 759 mmHg 85%
    09:00 -2°C° 0 mm 1 mps 759 mmHg 83%
    10:00 -1°C° 0 mm 1 mps 759 mmHg 80%
    11:00 0°C° 0 mm 1 mps 760 mmHg 78%
    12:00 +1°C° 0 mm 1 mps 760 mmHg 78%
    13:00 +1°C° 0 mm 1 mps 759 mmHg 79%
    14:00 +2°C° 0 mm 1 mps 759 mmHg 79%
    15:00 +1°C° 0 mm 1 mps 759 mmHg 81%
    16:00 -2°C° 0 mm 2 mps 760 mmHg 83%
    17:00 -2°C° 0 mm 2 mps 760 mmHg 84%
    18:00 -2°C° 0 mm 2 mps 760 mmHg 85%
    19:00 -2°C° 0 mm 3 mps 760 mmHg 86%
    20:00 -2°C° 0 mm 3 mps 760 mmHg 86%
    21:00 -3°C° 0 mm 4 mps 759 mmHg 86%
    22:00 -3°C° 0 mm 4 mps 759 mmHg 86%
    23:00 -4°C° 0 mm 4 mps 759 mmHg 86%

    Day after tomorrow, 22 January, Monday

    Time Temperature Precipitation Wind Pressure Humidity
    00:00 -5°C° 0 mm 5 mps 759 mmHg 86%
    01:00 -5°C° 0 mm 5 mps 759 mmHg 86%
    02:00 -5°C° 0 mm 5 mps 758 mmHg 86%
    03:00 -5°C° 0 mm 5 mps 758 mmHg 85%
    04:00 -5°C° 0 mm 6 mps 758 mmHg 84%
    05:00 -5°C° 0 mm 6 mps 757 mmHg 83%
    06:00 -5°C° 0 mm 6 mps 757 mmHg 82%
    07:00 -6°C° 0 mm 7 mps 757 mmHg 82%
    08:00 -6°C° 0 mm 7 mps 757 mmHg 82%
    09:00 -4°C° 0.3 mm 7 mps 757 mmHg 83%
    10:00 -4°C° 0.3 mm 7 mps 757 mmHg 84%
    11:00 -4°C° 0.3 mm 7 mps 757 mmHg 85%
    12:00 -5°C° 0.4 mm 8 mps 757 mmHg 86%
    13:00 -5°C° 0.4 mm 8 mps 757 mmHg 88%
    14:00 -5°C° 0.4 mm 8 mps 756 mmHg 89%
    15:00 -5°C° 0.5 mm 8 mps 757 mmHg 90%
    16:00 -6°C° 0.5 mm 8 mps 757 mmHg 90%
    17:00 -6°C° 0.5 mm 8 mps 757 mmHg 91%
    18:00 -6°C° 0.4 mm 8 mps 758 mmHg 90%
    19:00 -6°C° 0.4 mm 8 mps 758 mmHg 90%
    20:00 -6°C° 0.4 mm 8 mps 758 mmHg 90%
    21:00 -6°C° 0.2 mm 8 mps 758 mmHg 89%
    22:00 -6°C° 0.2 mm 8 mps 759 mmHg 89%
    23:00 -6°C° 0.2 mm 8 mps 759 mmHg 88%

    23 January, Tuesday

    Time Temperature Precipitation Wind Pressure Humidity
    00:00 -6°C° 0.1 mm 8 mps 759 mmHg 88%
    01:00 -7°C° 0.1 mm 8 mps 759 mmHg 88%
    02:00 -7°C° 0.1 mm 8 mps 759 mmHg 87%
    03:00 -7°C° 0 mm 8 mps 760 mmHg 87%
    04:00 -8°C° 0 mm 9 mps 760 mmHg 86%
    05:00 -8°C° 0 mm 9 mps 760 mmHg 86%
    06:00 -8°C° 0 mm 9 mps 761 mmHg 86%
    07:00 -8°C° 0 mm 9 mps 761 mmHg 85%
    08:00 -8°C° 0 mm 9 mps 762 mmHg 85%
    09:00 -8°C° 0 mm 9 mps 762 mmHg 85%
    10:00 -8°C° 0 mm 9 mps 763 mmHg 85%
    11:00 -8°C° 0 mm 9 mps 763 mmHg 84%
    12:00 -8°C° 0 mm 9 mps 763 mmHg 84%
    13:00 -8°C° 0 mm 9 mps 764 mmHg 83%
    14:00 -8°C° 0 mm 9 mps 764 mmHg 83%
    15:00 -9°C° 0 mm 9 mps 764 mmHg 82%
    16:00 -8°C° 0 mm 8 mps 765 mmHg 82%
    17:00 -10°C° 0 mm 8 mps 766 mmHg 82%
    18:00 -11°C° 0 mm 8 mps 766 mmHg 82%
    19:00 -11°C° 0 mm 8 mps 767 mmHg 82%
    20:00 -12°C° 0 mm 8 mps 767 mmHg 83%
    21:00 -12°C° 0 mm 8 mps 768 mmHg 82%
    22:00 -12°C° 0 mm 8 mps 768 mmHg 82%
    23:00 -12°C° 0 mm 8 mps 768 mmHg 82%

    24 January, Wednesday

    Time Temperature Precipitation Wind Pressure Humidity
    00:00 -13°C° 0 mm 8 mps 769 mmHg 81%
    01:00 -13°C° 0 mm 8 mps 769 mmHg 81%
    02:00 -13°C° 0 mm 8 mps 769 mmHg 80%
    03:00 -13°C° 0 mm 8 mps 770 mmHg 79%
    04:00 -13°C° 0 mm 8 mps 770 mmHg 78%
    05:00 -13°C° 0 mm 8 mps 770 mmHg 78%
    06:00 -13°C° 0 mm 8 mps 771 mmHg 78%
    07:00 -13°C° 0 mm 8 mps 771 mmHg 79%
    08:00 -13°C° 0 mm 8 mps 771 mmHg 79%
    09:00 -12°C° 0 mm 8 mps 772 mmHg 79%
    10:00 -11°C° 0 mm 8 mps 772 mmHg 79%
    11:00 -10°C° 0 mm 8 mps 772 mmHg 79%
    12:00 -8°C° 0 mm 8 mps 772 mmHg 79%
    13:00 -8°C° 0 mm 8 mps 772 mmHg 79%
    14:00 -7°C° 0 mm 8 mps 772 mmHg 79%
    15:00 -8°C° 0 mm 7 mps 772 mmHg 81%
    16:00 -9°C° 0 mm 7 mps 772 mmHg 83%
    17:00 -10°C° 0 mm 6 mps 773 mmHg 85%
    18:00 -10°C° 0 mm 6 mps 773 mmHg 86%
    19:00 -11°C° 0 mm 6 mps 773 mmHg 87%
    20:00 -11°C° 0 mm 6 mps 773 mmHg 88%
    21:00 -12°C° 0 mm 6 mps 773 mmHg 88%
    22:00 -12°C° 0 mm 6 mps 773 mmHg 89%
    23:00 -12°C° 0 mm 5 mps 773 mmHg 90%

    25 January, Thursday

    Time Temperature Precipitation Wind Pressure Humidity
    00:00 -13°C° 0 mm 5 mps 773 mmHg 91%
    01:00 -13°C° 0 mm 5 mps 773 mmHg 91%
    02:00 -13°C° 0 mm 5 mps 774 mmHg 92%
    03:00 -13°C° 0 mm 5 mps 774 mmHg 92%
    04:00 -11°C° 0 mm 4 mps 774 mmHg 93%
    05:00 -11°C° 0 mm 4 mps 774 mmHg 93%
    06:00 -11°C° 0 mm 4 mps 774 mmHg 93%
    07:00 -11°C° 0 mm 4 mps 774 mmHg 94%
    08:00 -10°C° 0 mm 4 mps 774 mmHg 94%
    09:00 -9°C° 0 mm 4 mps 774 mmHg 93%
    10:00 -8°C° 0 mm 3 mps 775 mmHg 93%
    11:00 -7°C° 0 mm 3 mps 775 mmHg 92%
    12:00 -6°C° 0 mm 3 mps 774 mmHg 92%
    13:00 -5°C° 0 mm 3 mps 774 mmHg 91%
    14:00 -5°C° 0 mm 3 mps 774 mmHg 90%
    15:00 -4°C° 0 mm 2 mps 774 mmHg 91%
    16:00 -4°C° 0 mm 2 mps 774 mmHg 92%
    17:00 -4°C° 0 mm 2 mps 774 mmHg 92%
    18:00 -4°C° 0 mm 2 mps 774 mmHg 92%
    19:00 -4°C° 0 mm 2 mps 774 mmHg 93%
    20:00 -4°C° 0 mm 2 mps 774 mmHg 93%
    21:00 -4°C° 0 mm 2 mps 774 mmHg 93%
    22:00 -4°C° 0 mm 2 mps 774 mmHg 94%
    23:00 -4°C° 0 mm 2 mps 774 mmHg 94%
    Show more